Location: Newark
(45.2500°N, 7.5833°E)
Time: 01:49:29
(UTC+00:00)

Transit 4A - All Passes

Search period start: 26 January 2020 00:00
Search period end: 05 February 2020 00:00
Orbit: 872 x 973 km, 66.8° (Epoch: 25 January)

Date Brightness Start Highest point End Pass type
(mag) Time Alt. Az. Time Alt. Az. Time Alt. Az.
26 Jan - 04:30:31 10° SSE 04:34:50 21° ESE 04:39:05 10° ENE visible
26 Jan - 06:14:35 10° SW 06:20:36 72° NW 06:26:31 10° NNE visible
26 Jan - 08:03:56 10° WNW 08:08:00 19° NNW 08:12:02 10° N daylight
26 Jan - 11:44:22 10° N 11:46:29 12° NNE 11:48:36 10° NE daylight
26 Jan - 13:29:15 10° NNW 13:34:39 37° NE 13:40:03 10° ESE daylight
26 Jan - 15:15:36 10° NW 15:21:04 43° WSW 15:26:34 10° S daylight
27 Jan - 04:38:45 10° S 04:43:55 31° ESE 04:49:00 10° NE visible
27 Jan - 06:24:11 10° SW 06:30:01 51° NW 06:35:46 10° NNE visible
27 Jan - 08:14:34 10° WNW 08:17:48 15° NNW 08:21:01 10° N daylight
27 Jan - 11:53:13 10° N 11:56:21 15° NNE 11:59:31 10° ENE daylight
27 Jan - 13:38:28 10° NNW 13:44:08 51° NE 13:49:51 10° SE daylight
27 Jan - 15:25:16 10° NW 15:30:13 29° WSW 15:35:12 10° SSW daylight
28 Jan - 04:47:24 10° S 04:53:05 45° ESE 04:58:40 10° NE visible
28 Jan - 06:34:00 10° WSW 06:39:31 37° NW 06:44:58 10° NNE daylight
28 Jan - 08:25:29 10° NW 08:27:40 12° NNW 08:29:52 10° N daylight
28 Jan - 12:02:12 10° N 12:06:10 18° NNE 12:10:07 10° ENE daylight
28 Jan - 13:47:43 10° NNW 13:53:34 72° NE 13:59:25 10° SE daylight
28 Jan - 15:35:13 10° WNW 15:39:17 20° WSW 15:43:23 10° SSW daylight
29 Jan - 04:56:21 10° SSW 05:02:18 65° ESE 05:08:09 10° NE visible
29 Jan - 06:44:01 10° W 06:49:06 28° NW 06:54:07 10° NNE daylight
29 Jan - 12:11:15 10° NNW 12:15:53 23° NE 12:20:30 10° E daylight
29 Jan - 13:57:04 10° NW 14:02:54 81° WSW 14:08:47 10° SSE daylight
29 Jan - 15:45:51 10° WNW 15:48:18 13° WSW 15:50:45 10° SW daylight
30 Jan - 03:22:36 10° SE 03:26:03 16° ESE 03:29:27 10° ENE visible
30 Jan - 05:05:35 10° SSW 05:11:36 88° WNW 05:17:32 10° NNE visible
30 Jan - 06:54:16 10° W 06:58:46 22° NW 07:03:13 10° NNE daylight
30 Jan - 10:35:58 10° N 10:37:07 11° NNE 10:38:16 10° NNE daylight
30 Jan - 12:20:23 10° NNW 12:25:31 31° NE 12:30:39 10° ESE daylight
30 Jan - 14:06:29 10° NW 14:12:10 56° WSW 14:17:53 10° SSE daylight
31 Jan - 03:30:26 10° SSE 03:35:05 24° ESE 03:39:41 10° ENE visible
31 Jan - 05:15:01 10° SW 05:20:59 63° NW 05:26:50 10° NNE visible
31 Jan - 07:04:45 10° WNW 07:08:31 17° NNW 07:12:16 10° N daylight
31 Jan - 10:44:30 10° N 10:47:03 13° NNE 10:49:34 10° NE daylight
31 Jan - 12:29:33 10° NNW 12:35:04 42° NE 12:40:35 10° ESE daylight
31 Jan - 14:16:02 10° NW 14:21:21 38° WSW 14:26:42 10° S daylight
01 Feb - 03:38:50 10° S 03:44:12 35° ESE 03:49:29 10° NE visible
01 Feb - 05:24:42 10° WSW 05:30:25 45° NW 05:36:04 10° NNE visible
01 Feb - 07:15:28 10° NW 07:18:20 14° NNW 07:21:12 10° N daylight
01 Feb - 10:53:25 10° N 10:56:54 16° NNE 11:00:21 10° ENE daylight
01 Feb - 12:38:46 10° NNW 12:44:32 58° NE 12:50:19 10° SE daylight
01 Feb - 14:25:47 10° NW 14:30:28 26° WSW 14:35:12 10° SSW daylight
02 Feb - 03:47:35 10° S 03:53:23 51° ESE 03:59:04 10° NE visible
02 Feb - 05:34:35 10° WSW 05:39:57 33° NW 05:45:15 10° NNE visible
02 Feb - 07:26:34 10° NW 07:28:14 11° NNW 07:29:55 10° N daylight
02 Feb - 11:02:26 10° NNW 11:06:39 20° NE 11:10:53 10° E daylight
02 Feb - 12:48:03 10° NNW 12:53:55 82° ENE 12:59:49 10° SE daylight
02 Feb - 14:35:54 10° WNW 14:39:32 17° WSW 14:43:10 10° SW daylight
03 Feb - 02:15:16 10° ESE 02:17:18 12° E 02:19:17 10° E visible
03 Feb - 03:56:39 10° SSW 04:02:38 74° ESE 04:08:31 10° NE visible
03 Feb - 05:44:42 10° W 05:49:34 25° NW 05:54:23 10° NNE visible
03 Feb - 11:11:31 10° NNW 11:16:21 26° NE 11:21:10 10° E daylight
03 Feb - 12:57:25 10° NW 13:03:14 71° WSW 13:09:04 10° SSE daylight
03 Feb - 14:47:17 10° W 14:48:30 11° W 14:49:44 10° WSW daylight
04 Feb - 02:22:20 10° SSE 02:26:17 18° ESE 02:30:11 10° ENE visible
04 Feb - 04:05:57 10° SW 04:11:57 79° WNW 04:17:52 10° NNE visible
04 Feb - 05:55:02 10° W 05:59:15 20° NW 06:03:28 10° N visible
04 Feb - 09:35:57 10° N 09:37:41 11° NNE 09:39:26 10° NE daylight
04 Feb - 11:20:40 10° NNW 11:25:57 34° NE 11:31:15 10° ESE daylight
04 Feb - 13:06:53 10° NW 13:12:28 48° WSW 13:18:05 10° S daylight
